This demonstration page uses our WeatherBlox Daily Observations layout. Learn more.

Hourly Observations for February 7, 2018

Temp ( °F °C ) Dew Point ( °F °C ) Humidity (%) Winds ( mph kmh ) Pressure ( in mb ) Visibility ( mi km ) Precip ( " mm )
12:15 am 00:15 Partly Cloudy 7 -14 5 -15.2 91 91 W 3 6 30.5 1033 10 16.0934 0 0
12:35 am 00:35 Partly Cloudy 8 -13.6 5 -14.9 90 90 W 5 7 30.5 1033 10 16.0934 0 0
12:55 am 00:55 Clear 8 -13.1 6 -14.2 92 92 W 3 6 30.5 1033 10 16.0934 0 0
1:15 am 01:15 Clear 8 -13.6 5 -14.8 91 91 WNW 5 7 30.5 1033 10 16.0934 0 0
1:35 am 01:35 Clear 6 -14.6 3 -16.1 88 88 WNW 5 7 30.53 1034 10 16.0934 0 0
1:55 am 01:55 Clear 4 -15.7 1 -17.1 89 89 WNW 5 7 30.56 1035 10 16.0934 0 0
2:15 am 02:15 Partly Cloudy 5 -15 3 -16.2 91 91 WNW 6 9 30.53 1034 10 16.0934 0 0
2:35 am 02:35 Mostly Cloudy 9 -13 7 -14.1 92 92 NW 6 9 30.53 1034 10 16.0934 0 0
2:55 am 02:55 Cloudy 13 -10.8 11 -11.7 93 93 NNW 6 9 30.5 1033 10 16.0934 0 0
3:15 am 03:15 Cloudy 13 -10.3 12 -11.1 94 94 NNW 5 7 30.53 1034 10 16.0934 0 0
3:35 am 03:35 Cloudy 14 -10 13 -10.8 94 94 NNW 5 7 30.53 1034 10 16.0934 0 0
3:55 am 03:55 Mostly Cloudy 15 -9.7 13 -10.5 94 94 NNW 6 9 30.53 1034 10 16.0934 0 0
4:15 am 04:15 Mostly Cloudy 15 -9.7 13 -10.6 93 93 N 8 13 30.53 1034 10 16.0934 0 0
4:35 am 04:35 Cloudy 16 -8.9 14 -10.1 91 91 N 10 17 30.5 1033 10 16.0934 0 0
4:55 am 04:55 Cloudy 18 -7.8 14 -10 84 84 N 10 17 30.5 1033 10 16.0934 0 0
5:15 am 05:15 Cloudy 18 -8 13 -10.5 82 82 N 14 22 30.53 1034 10 16.0934 0 0
5:35 am 05:35 Cloudy 17 -8.1 13 -10.6 82 82 N 10 17 30.53 1034 10 16.0934 0 0
5:55 am 05:55 Cloudy 17 -8.5 13 -10.8 84 84 N 9 15 30.53 1034 10 16.0934 0 0
6:15 am 06:15 Cloudy 16 -9 11 -11.4 83 83 N 8 13 30.53 1034 10 16.0934 0 0
6:35 am 06:35 Cloudy 15 -9.2 11 -11.5 84 84 N 8 13 30.53 1034 10 16.0934 0 0
6:55 am 06:55 Cloudy 15 -9.7 11 -11.8 85 85 N 7 11 30.56 1035 10 16.0934 0 0
7:15 am 07:15 Cloudy 14 -9.8 10 -12 84 84 N 7 11 30.59 1036 10 16.0934 0 0
7:35 am 07:35 Cloudy 14 -10 10 -12.3 83 83 N 7 11 30.59 1036 10 16.0934 0 0
7:55 am 07:55 Cloudy 14 -10.1 10 -12.5 83 83 N 3 6 30.59 1036 10 16.0934 0 0
8:15 am 08:15 Cloudy 13 -10.3 9 -12.6 83 83 Calm 30.59 1036 10 16.0934 0 0
8:35 am 08:35 Cloudy 13 -10.7 9 -13 83 83 N 5 7 30.59 1036 10 16.0934 0 0
8:55 am 08:55 Cloudy 13 -10.5 9 -13 82 82 NNE 7 11 30.59 1036 10 16.0934 0 0
9:15 am 09:15 Cloudy 14 -10.1 8 -13.1 79 79 N 6 9 30.62 1037 10 16.0934 0 0
9:35 am 09:35 Cloudy 14 -10.1 8 -13.2 78 78 NNE 8 13 30.62 1037 10 16.0934 0 0
9:55 am 09:55 Cloudy 14 -10 9 -13 79 79 NE 6 9 30.62 1037 10 16.0934 0 0
10:15 am 10:15 Cloudy 14 -10 8 -13.2 78 78 NNE 6 9 30.62 1037 10 16.0934 0 0
10:35 am 10:35 Cloudy 14 -9.9 8 -13.1 78 78 NE 5 7 30.62 1037 10 16.0934 0 0
10:55 am 10:55 Cloudy 14 -9.8 8 -13.2 76 76 Calm 30.62 1037 10 16.0934 0 0
11:15 am 11:15 Cloudy 15 -9.6 8 -13.4 74 74 Calm 30.62 1037 10 16.0934 0 0
11:35 am 11:35 Cloudy 15 -9.6 8 -13.3 75 75 Calm 30.62 1037 10 16.0934 0 0
11:55 am 11:55 Cloudy 15 -9.3 9 -13 75 75 Calm 30.62 1037 10 16.0934 0 0
12:15 pm 12:15 Cloudy 16 -9 9 -12.7 75 75 Calm 30.62 1037 10 16.0934 0 0
12:35 pm 12:35 Cloudy 17 -8.5 10 -12.2 75 75 SSW 5 7 30.56 1035 10 16.0934 0 0
12:55 pm 12:55 Cloudy 17 -8.1 10 -12.5 71 71 S 3 6 30.56 1035 10 16.0934 0 0
1:15 pm 13:15 Cloudy 18 -7.8 10 -12.1 72 72 S 5 7 30.53 1034 10 16.0934 0 0
1:35 pm 13:35 Mostly Cloudy 18 -7.7 10 -12.5 69 69 SSE 5 7 30.53 1034 10 16.0934 0 0
1:55 pm 13:55 Partly Cloudy 18 -7.6 10 -12.2 70 70 S 6 9 30.5 1033 10 16.0934 0 0
2:15 pm 14:15 Sunny 19 -7 11 -11.4 71 71 S 5 7 30.5 1033 10 16.0934 0 0
2:35 pm 14:35 Sunny 20 -6.7 12 -11.1 71 71 S 9 15 30.45 1031 10 16.0934 0 0
2:55 pm 14:55 Sunny 20 -6.4 11 -11.4 68 68 S 10 17 30.45 1031 10 16.0934 0 0
3:15 pm 15:15 Sunny 21 -6 13 -10.5 71 71 SSW 10 17 30.45 1031 10 16.0934 0 0
3:35 pm 15:35 Sunny 22 -5.8 13 -10.4 70 70 S 10 17 30.45 1031 10 16.0934 0 0
3:55 pm 15:55 Mostly Cloudy 22 -5.5 14 -10 71 71 SSW 8 13 30.42 1030 10 16.0934 0 0
4:15 pm 16:15 Cloudy 23 -4.8 15 -9.5 70 70 SSW 13 20 30.45 1031 10 16.0934 0 0
4:35 pm 16:35 Cloudy 24 -4.5 15 -9.5 68 68 SSW 13 20 30.42 1030 10 16.0934 0 0
4:55 pm 16:55 Cloudy 24 -4.5 16 -9 71 71 S 13 20 30.42 1030 10 16.0934 0 0
5:15 pm 17:15 Cloudy 25 -4 17 -8.4 72 72 SSW 15 24 30.39 1029 10 16.0934 0 0
5:35 pm 17:35 Mostly Cloudy 24 -4.3 17 -8.3 74 74 SSW 10 17 30.42 1030 10 16.0934 0 0
5:55 pm 17:55 Partly Cloudy 23 -4.8 17 -8.3 77 77 S 12 19 30.39 1029 10 16.0934 0 0
6:15 pm 18:15 Partly Cloudy 23 -5.1 17 -8.2 79 79 S 9 15 30.39 1029 10 16.0934 0 0
6:35 pm 18:35 Clear 22 -5.4 17 -8.2 81 81 SSW 9 15 30.42 1030 10 16.0934 0 0
6:55 pm 18:55 Clear 22 -5.4 17 -8.1 82 82 SSW 10 17 30.39 1029 10 16.0934 0 0
7:15 pm 19:15 Clear 22 -5.5 18 -8 83 83 SSW 13 20 30.39 1029 10 16.0934 0 0
7:35 pm 19:35 Partly Cloudy 23 -5 19 -7.5 83 83 SSW 12 19 30.42 1030 10 16.0934 0 0
7:55 pm 19:55 Clear 24 -4.7 19 -7 84 84 SW 15 24 30.39 1029 10 16.0934 0 0
8:15 pm 20:15 Clear 24 -4.5 20 -6.7 85 85 SW 10 17 30.42 1030 10 16.0934 0 0
8:35 pm 20:35 Clear 25 -3.7 21 -6 84 84 SW 14 22 30.39 1029 10 16.0934 0 0
8:55 pm 20:55 Clear 26 -3.5 22 -5.8 84 84 SW 10 17 30.39 1029 10 16.0934 0 0
9:15 pm 21:15 Clear 27 -2.7 22 -5.3 83 83 SW 15 24 30.39 1029 10 16.0934 0 0
9:35 pm 21:35 Clear 27 -3 22 -5.5 83 83 SW 13 20 30.39 1029 10 16.0934 0 0
9:55 pm 21:55 Clear 27 -3 22 -5.5 83 83 SW 12 19 30.39 1029 10 16.0934 0 0
10:15 pm 22:15 Partly Cloudy 26 -3.3 22 -5.7 84 84 SW 12 19 30.39 1029 10 16.0934 0 0
10:35 pm 22:35 Clear 25 -4.1 21 -6.1 86 86 SW 10 17 30.39 1029 10 16.0934 0 0
10:55 pm 22:55 Partly Cloudy 24 -4.4 21 -6.2 87 87 SW 9 15 30.42 1030 10 16.0934 0 0
11:15 pm 23:15 Cloudy 25 -4 22 -5.7 88 88 SW 8 13 30.39 1029 10 16.0934 0 0
11:35 pm 23:35 Cloudy 26 -3.5 22 -5.5 86 86 SW 6 9 30.39 1029 10 16.0934 0 0
11:55 pm 23:55 Cloudy 26 -3.6 22 -5.5 87 87 SW 6 9 30.39 1029 10 16.0934 0 0

Powered by AerisWeather